Almeria, Spain

5:04 PM CEST on September 21, 2017 (GMT +0200)
Almeria

Weather History for LEAM - December, 2012

Change the Weather History Date:

Monday, December 31, 2012

  Actual Average Record
Temperature  
Mean Temperature 53 °F -  
Max Temperature 61 °F 58 °F 68 °F (2001)
Min Temperature 45 °F 46 °F 40 °F (2014)
Degree Days  
Heating Degree Days 12    
Growing Degree Days 3 (Base 50)    
Moisture  
Dew Point 44 °F    
Average Humidity 69    
Maximum Humidity 94    
Minimum Humidity 45    
Precipitation  
Precipitation 0.00 in 0.04 in - ()
Sea Level Pressure  
Sea Level Pressure 30.29 in    
Wind  
Wind Speed 7 mph ()    
Max Wind Speed 14 mph    
Max Gust Speed -    
Visibility 6.2 miles    
Events      
Averages and records for this station are not official NWS values.
T = Trace of Precipitation, MM = Missing Value Source: Averaged Metar Reports

Daily Weather History Graph

Daily Weather History Graph

Search for Another Location

Airport or City:

Trip Planner

Search our weather history database for the weather conditions in past years. The results will help you decide how hot, cold, wet, or windy it might be!

Date:

Astronomy

Dec. 31, 2012 Rise Set
Actual Time 8:22 AM CET 6:03 PM CET
Civil Twilight 7:53 AM CET 6:32 PM CET
Nautical Twilight 7:21 AM CET 7:04 PM CET
Astronomical Twilight 6:49 AM CET 7:36 PM CET
Moon 9:14 PM CET (12/31) 10:00 AM CET (12/31)
Length of Visible Light 10h 38m
Length of Day
9h 41m
Waning Gibbous, 92% of the Moon is Illuminated
Dec 31
Waning Gibbous
Jan 5
Last Quarter
Jan 11
New
Jan 19
First Quarter
Jan 27
Full

Hourly Weather History & Observations

Time (CET) Temp. Windchill Dew Point Humidity Pressure Visibility Wind Dir Wind Speed Gust Speed Precip Events Conditions
1:00 AM 49 °F - 37 °F 52% 30.43 in - NNW 13.8 mph - -  
5:00 AM 48.2 °F - 37.4 °F 66% 30.36 in - NW 13.8 mph - N/A   Clear
5:30 AM 48.2 °F - 37.4 °F 66% 30.36 in - NW 13.8 mph - N/A   Clear
6:00 AM 48.2 °F - 37.4 °F 66% 30.36 in - NW 12.7 mph - N/A   Clear
6:30 AM 50.0 °F - 37.4 °F 62% 30.36 in - NNW 9.2 mph - N/A   Clear
7:00 AM 46 °F - 35 °F 55% 30.38 in 31 mi NW 13.8 mph - -  
7:00 AM 46.4 °F 40.7 °F 35.6 °F 66% 30.36 in - NW 12.7 mph - N/A   Clear
7:30 AM 46.4 °F 41.1 °F 37.4 °F 71% 30.36 in - NW 11.5 mph - N/A   Clear
8:00 AM 46.4 °F 41.1 °F 35.6 °F 66% 30.36 in - NNW 11.5 mph - N/A   Clear
8:30 AM 46.4 °F 40.7 °F 35.6 °F 66% 30.36 in - NNW 12.7 mph - N/A   Clear
9:00 AM 48.2 °F - 35.6 °F 62% 30.36 in - NW 11.5 mph - N/A   Clear
9:30 AM 50.0 °F - 37.4 °F 62% 30.36 in - NW 11.5 mph - N/A   Clear
10:00 AM 53.6 °F - 37.4 °F 54% 30.36 in 6.2 mi NW 9.2 mph - N/A   Partly Cloudy
10:30 AM 55.4 °F - 37.4 °F 51% 30.36 in 6.2 mi NNW 9.2 mph - N/A   Partly Cloudy
12:00 PM 59.0 °F - 44.6 °F 59% 30.36 in 6.2 mi Variable 1.2 mph - N/A   Partly Cloudy
12:30 PM 60.8 °F - 44.6 °F 55% 30.33 in 6.2 mi Variable 1.2 mph - N/A   Partly Cloudy
1:00 PM 60 °F - 44 °F 45% 30.34 in 28 mi South 2.3 mph - -   Scattered Clouds
1:00 PM 60.8 °F - 46.4 °F 59% 30.33 in 6.2 mi Variable 1.2 mph - N/A   Partly Cloudy
1:30 PM 60.8 °F - 46.4 °F 59% 30.30 in 6.2 mi Variable 1.2 mph - N/A   Partly Cloudy
2:00 PM 59.0 °F - 48.2 °F 67% 30.30 in 6.2 mi Variable 2.3 mph - N/A   Partly Cloudy
2:30 PM 59.0 °F - 48.2 °F 67% 30.27 in 6.2 mi Variable 2.3 mph - N/A   Partly Cloudy
3:00 PM 59.0 °F - 48.2 °F 67% 30.27 in 6.2 mi South 3.5 mph - N/A   Partly Cloudy
3:30 PM 59.0 °F - 48.2 °F 67% 30.24 in 6.2 mi South 3.5 mph - N/A   Partly Cloudy
4:00 PM 59.0 °F - 50.0 °F 72% 30.24 in 6.2 mi South 4.6 mph - N/A   Partly Cloudy
5:00 PM 59.0 °F - 50.0 °F 72% 30.24 in 6.2 mi South 3.5 mph - N/A   Partly Cloudy
5:30 PM 57.2 °F - 50.0 °F 77% 30.21 in 6.2 mi South 3.5 mph - N/A   Partly Cloudy
6:00 PM 57.2 °F - 50.0 °F 77% 30.21 in 6.2 mi SSW 3.5 mph - N/A   Partly Cloudy
6:30 PM 57.2 °F - 51.8 °F 82% 30.21 in 6.2 mi SSW 3.5 mph - N/A   Partly Cloudy
7:00 PM 54 °F - 49 °F 77% 30.22 in 25 mi SW 2.3 mph - -   Scattered Clouds
7:00 PM 55.4 °F - 50.0 °F 82% 30.21 in 6.2 mi Variable 2.3 mph - N/A   Partly Cloudy
7:30 PM 53.6 °F - 50.0 °F 88% 30.21 in 6.2 mi Calm Calm - N/A   Partly Cloudy
8:00 PM 53.6 °F - 50.0 °F 88% 30.18 in 6.2 mi Calm Calm - N/A   Partly Cloudy
8:30 PM 53.6 °F - 50.0 °F 88% 30.18 in 6.2 mi Variable 1.2 mph - N/A   Partly Cloudy
9:00 PM 51.8 °F - 48.2 °F 88% 30.18 in 6.2 mi Variable 1.2 mph - N/A   Partly Cloudy
9:30 PM 51.8 °F - 48.2 °F 88% 30.18 in 6.2 mi Variable 2.3 mph - N/A   Partly Cloudy
10:00 PM 51.8 °F - 48.2 °F 88% 30.18 in 6.2 mi NW 4.6 mph - N/A   Partly Cloudy
10:30 PM 50.0 °F - 48.2 °F 94% 30.18 in 6.2 mi NW 3.5 mph - N/A   Partly Cloudy